Friday Harbor, WA
on Wednesday, February 20, 2013

Wednesday
Previous Day Next Day
Daily Summary
 ActualAverageRecord
Temperature
Mean Temperature °F °F  
Max Temperature 44°F 46°F 53°F (2003)
Min Temperature 32°F 34°F 26°F (2011)
Degree Days
Heating Degree Days 27    
Moisture
Dew Point 36°F   
Average Humidity 90    
Maximum Humidity 100    
Minimum Humidity 76    
Precipitation
Precipitation 0.02 in in in ()
Wind
Wind Speed 2 mph   
Max Wind Speed 10 mph   
Max Gust Speed mph   
Visibility 8 miles   
Events Fog , Rain   
Averages and records for this station are not official NWS values.
Key: T is trace of precipitation, MM is missing value
Source: NWS Daily Summary
Seasonal Weather Averages
Time(PST)TemperatureDew PointHumidity Pressure Visibility Wind DirectionWind SpeedGust SpeedPrecipitationEvents Conditions
12:53 AM 32.0°F 30.9°F 96% 30.01 in 10.0 miles Calm Calm - N/A   Clear
1:53 AM 33.1°F 32.0°F 96% 30.02 in 8.0 miles Calm Calm - N/A   Clear
2:53 AM 32.0°F 30.9°F 96% 30.03 in 8.0 miles Calm Calm - N/A   Mostly Cloudy
3:28 AM 32.0°F 30.2°F 93% 30.03 in 8.0 miles Calm Calm - N/A   Overcast
3:53 AM 32.0°F 32.0°F 100% 30.03 in 7.0 miles Calm Calm - N/A   Mostly Cloudy
4:04 AM 33.8°F 32.0°F 93% 30.02 in 3.0 miles Calm Calm - N/A   Mostly Cloudy
4:29 AM 35.6°F 35.6°F 100% 30.03 in 1.5 miles Calm Calm - N/A   Overcast
4:48 AM 35.6°F 33.8°F 93% 30.03 in 3.0 miles Calm Calm - N/A   Overcast
4:53 AM 35.1°F 34.0°F 96% 30.03 in 6.0 miles Calm Calm - N/A   Overcast
5:08 AM 33.8°F 33.8°F 100% 30.03 in 1.5 miles Calm Calm - N/A   Overcast
5:17 AM 35.6°F 33.8°F 93% 30.02 in 0.5 miles Calm Calm - N/A Fog Fog
5:42 AM 33.8°F 33.8°F 100% 30.02 in 2.0 miles Calm Calm - N/A   Mostly Cloudy
5:49 AM 33.8°F 33.8°F 100% 30.02 in 4.0 miles Calm Calm - N/A   Mostly Cloudy
5:53 AM 34.0°F 33.1°F 96% 30.03 in 5.0 miles Calm Calm - N/A   Mostly Cloudy
6:16 AM 35.6°F 33.8°F 93% 30.02 in 10.0 miles Calm Calm - N/A   Overcast
6:50 AM 37.4°F 35.6°F 93% 30.02 in 10.0 miles Calm Calm - N/A   Overcast
6:53 AM 37.0°F 36.0°F 96% 30.02 in 10.0 miles Calm Calm - N/A   Overcast
7:01 AM 37.4°F 35.6°F 93% 30.01 in 10.0 miles Calm Calm - N/A   Overcast
7:35 AM 37.4°F 37.4°F 100% 30.01 in 10.0 miles South 3.5 mph - N/A   Overcast
7:53 AM 39.0°F 37.9°F 96% 30.02 in 3.0 miles South 3.5 mph - 0.00 in Rain Light Rain
8:00 AM 39.2°F 37.4°F 93% 30.01 in 5.0 miles Calm Calm - 0.00 in Rain Light Rain
8:53 AM 41.0°F 37.9°F 89% 30.02 in 10.0 miles SE 9.2 mph - 0.00 in   Overcast
9:53 AM 41.0°F 37.9°F 89% 30.02 in 10.0 miles SE 9.2 mph - N/A   Overcast
10:53 AM 43.0°F 37.9°F 82% 30.03 in 10.0 miles SSE 8.1 mph - N/A   Overcast
12:53 PM 43.0°F 39.0°F 86% 30.01 in 10.0 miles ESE 6.9 mph - N/A   Overcast
1:08 PM 42.8°F 39.2°F 87% 30.00 in 2.5 miles SE 9.2 mph - 0.01 in Rain Light Rain
1:24 PM 42.8°F 37.4°F 81% 30.00 in 5.0 miles East 8.1 mph - 0.02 in Rain Light Rain
1:53 PM 43.0°F 39.0°F 86% 30.00 in 10.0 miles ESE 6.9 mph - 0.02 in   Overcast
2:51 PM 44.6°F 37.4°F 76% 29.99 in 10.0 miles ESE 8.1 mph - N/A   Overcast
2:53 PM 44.1°F 39.0°F 82% 29.99 in 10.0 miles ESE 8.1 mph - N/A   Overcast
3:53 PM 44.1°F 39.0°F 82% 29.99 in 10.0 miles ESE 8.1 mph - N/A   Overcast
4:53 PM 44.1°F 39.0°F 82% 30.00 in 10.0 miles SE 6.9 mph - N/A   Overcast
5:49 PM 42.8°F 39.2°F 87% 30.00 in 10.0 miles ESE 6.9 mph - N/A   Overcast
5:53 PM 43.0°F 39.0°F 86% 30.00 in 10.0 miles East 6.9 mph - N/A   Overcast
6:53 PM 43.0°F 37.9°F 82% 30.01 in 10.0 miles SE 9.2 mph - N/A   Overcast
8:53 PM 42.1°F 37.0°F 82% 30.03 in 10.0 miles East 8.1 mph - N/A   Overcast
9:53 PM 42.1°F 37.0°F 82% 30.03 in 10.0 miles East 8.1 mph - N/A   Overcast
10:53 PM 42.1°F 37.0°F 82% 30.01 in 10.0 miles East 10.4 mph - N/A   Overcast
11:53 PM 42.1°F 37.0°F 82% 30.01 in 10.0 miles East 9.2 mph - N/A   Overcast
Moon Phase
Feb. 20 Feb. 25 Mar. 04 Mar. 11 Mar. 19
Sunrise:07:09 AM (PST) Moon Rise:12:53 PM (PST)2/20
Sunset:05:42 PM (PST) Moon Set:03:49 AM (PST)2/20

Copyright © 2014 The Weather Underground, Inc.